Location: Boiro
(42.6475°N, 8.8834°W)
Time: 08:00:32
(UTC+01:00)

SR - Pass Details

Date: 04 December 2021
Orbit: 583 x 872 km, 66.7° (Epoch: 16 January)

Event Time Altitude Azimuth Distance (km) Brightness Sun altitude
Rises 23:43:57 0° 178° (S) 3,022 - -60.6°
Reaches altitude 10° 23:46:40 10° 165° (SSE) 2,062 - -61.1°
Maximum altitude 23:50:23 24° 111° (ESE) 1,301 - -61.6°
Drops below altitude 10° 23:53:56 10° 57° (ENE) 1,963 - -62.1°
Sets 23:56:26 0° 44° (NE) 2,844 - -62.5°
